[[{"header":{"parameterUnit":"m.s-1","parameterCategory":1,"la1":30.2991,"la2":30.254,"lo1":-89.0895,"lo2":-89.0444,"dx":0.0017,"dy":0.0017,"nx":28,"ny":28,"refTime":"2022-11-17T15:00:00:Z","depth":0,"parameterNumber":2,"parameterNumberName":"U-component_of_WINDS"},"data":[0,0,0,0,0,0,0,0,0,0,0,0,0,0,0,0,0,0,0,0,0,0,0,0,0,0,0,0,0,0,0,0,0,0,0,0,0,0,0,0,0,0,0,0,0,0,0,0,0,0,0,0,0,0,0,0,0,0,0.4089,0.4089,0,0.4017,0.4016,0.4015,0.4014,0.4015,0.4016,0.4017,0.3939,0.3936,0.3933,0,0,0,0,0,0,0,0,0,0,0,0,0,0.4224,0.4222,0.4089,0.4088,0.4088,0.4017,0.4016,0.4015,0.4014,0.4015,0.4017,0.4018,0.394,0.3936,0.3933,0,0,0,0,0,0,0,0,0,0,0,0,0,0.416,0.4221,0.409,0.4079,0.4077,0.4017,0.4016,0.4015,0.4014,0.4015,0.4017,0.4018,0.3941,0.3937,0.3932,0.3877,0,0,0.3919,0.3917,0,0,0,0,0,0,0,0,0.4163,0.4155,0.4081,0.4079,0.4077,0.4026,0.4035,0.3969,0.4014,0.4038,0.4017,0.4019,0.3967,0.396,0.3943,0.3874,0.387,0.3919,0.3916,0.3914,0.3913,0,0,0,0,0,0,0,0.4168,0.4158,0.4061,0.408,0.4078,0.4077,0.4069,0.4022,0.3995,0.4036,0.4036,0.4027,0.3966,0.3948,0.3942,0.3869,0.3919,0.3915,0.3912,0.391,0.3751,0.3749,0,0,0,0,0,0,0.4175,0.4162,0.4063,0.4058,0.4125,0.4073,0.4065,0.4041,0.3996,0.399,0.4026,0.4028,0.3955,0.3947,0.3939,0.3871,0.3914,0.391,0.3907,0.3752,0.3751,0.3749,0,0,0,0,0,0,0.4178,0.4166,0.4066,0.411,0.4097,0.4069,0.4043,0.4039,0.4021,0.3989,0.3983,0.4013,0.3955,0.3945,0.3893,0.3868,0.3908,0.3904,0.3754,0.3752,0.375,0.3735,0,0,0,0,0,0,0.4182,0.4167,0.4146,0.411,0.4095,0.4022,0.4042,0.4037,0.4014,0.4015,0.3975,0.3969,0.3956,0.39,0.3889,0.3863,0.39,0.3756,0.3753,0.375,0.3738,0.3732,0.3728,0,0,0,0,0,0.4187,0.4144,0.4145,0.4133,0.4068,0.402,0.4012,0.3998,0.4012,0.399,0.397,0.397,0.3873,0.3894,0.3882,0.3854,0.3758,0.3754,0.3751,0.374,0.3733,0.3728,0,0,0,0,0,0,0.4177,0.4139,0.414,0.4085,0.4056,0.402,0.3993,0.3992,0.3958,0.396,0.3944,0.3935,0.3883,0.3864,0.3888,0.3799,0.3817,0.3811,0.3813,0.3807,0.3802,0.3807,0.3897,0,0,0,0,0,0.4169,0.4134,0.4103,0.4057,0.4042,0.402,0.3999,0.3991,0.396,0.3948,0.3923,0.3892,0.3855,0.383,0.3794,0.3736,0.3727,0.3711,0.3706,0.3703,0.3697,0.3664,0.3657,0.3737,0.3737,0.3737,0,0,0.415,0.4126,0.4104,0.4054,0.4031,0.3994,0.401,0.397,0.3943,0.3941,0.389,0.3872,0.3836,0.3781,0.3755,0.3763,0.3673,0.3698,0.3695,0.3691,0.366,0.3652,0.3646,0.3735,0.3735,0.3736,0,0,0.4098,0.4077,0.4036,0.4013,0.3979,0.3965,0.3955,0.392,0.3908,0.3858,0.3856,0.3823,0.3759,0.3733,0.3712,0.3653,0.3652,0.3642,0.3616,0.3585,0.3579,0.3573,0.3551,0.3544,0.3637,0.3637,0.3637,0,0.4079,0.4025,0.4015,0.3976,0.3953,0.3953,0.3911,0.3889,0.3844,0.3828,0.3839,0.3759,0.3735,0.3674,0.366,0.3643,0.3631,0.3645,0.3581,0.3575,0.357,0.3548,0.354,0.3636,0.3636,0.3636,0.3636,0,0.4003,0.3966,0.3937,0.3896,0.3871,0.383,0.3813,0.3789,0.3784,0.3769,0.3718,0.369,0.3648,0.3633,0.3627,0.3571,0.3577,0.3585,0.3602,0.3561,0.3541,0.3533,0.3634,0.3634,0.3635,0.3635,0,0,0.394,0.3896,0.3885,0.3866,0.3829,0.38,0.376,0.3721,0.37,0.367,0.3635,0.3582,0.3589,0.3565,0.3557,0.353,0.3484,0.354,0.3539,0.353,0.342,0.3413,0.3404,0.3485,0.3483,0.3482,0.3422,0,0.3883,0.3813,0.3803,0.3741,0.3706,0.3706,0.3671,0.3645,0.363,0.3597,0.3581,0.3543,0.3556,0.3541,0.3515,0.3495,0.3462,0.35,0.3451,0.3449,0.3458,0.3394,0.3386,0.3331,0.3415,0.3413,0.3412,0,0.3806,0.3776,0.371,0.3679,0.3664,0.3633,0.3597,0.3566,0.3536,0.3527,0.3502,0.3498,0.3456,0.3477,0.3419,0.3445,0.3425,0.3412,0.341,0.3403,0.3426,0.3383,0.3314,0.3305,0.34,0.3401,0.3402,0,0.3765,0.3708,0.3661,0.3645,0.3608,0.3586,0.357,0.3541,0.3519,0.3487,0.3472,0.3436,0.3415,0.3387,0.3373,0.339,0.3315,0.3335,0.3305,0.3305,0.3287,0.3288,0.3211,0.3277,0.3278,0.3278,0.3278,0,0.3701,0.366,0.3642,0.3613,0.3568,0.3558,0.3513,0.3497,0.3472,0.344,0.3438,0.3407,0.3392,0.3358,0.3347,0.33,0.3291,0.3282,0.3279,0.3281,0.3282,0.3266,0.3268,0.3276,0.3276,0.3276,0.3277,0,0.3646,0.3632,0.3582,0.3552,0.3544,0.3511,0.3485,0.3457,0.3444,0.3403,0.3393,0.3371,0.3332,0.3316,0.3268,0.3261,0.3206,0.3207,0.3216,0.3215,0.3186,0.3188,0.3094,0.3081,0.3157,0.3157,0.3156,0,0.3605,0.3574,0.3542,0.3521,0.3504,0.347,0.3447,0.3437,0.3413,0.3378,0.3354,0.3316,0.3284,0.3222,0.3201,0.3165,0.3163,0.3133,0.3158,0.3161,0.3161,0.3163,0.3159,0.3128,0.3127,0.3126,0.3126,0,0.3533,0.3528,0.3497,0.3463,0.3437,0.341,0.3383,0.3365,0.3351,0.3325,0.3286,0.3262,0.3214,0.3175,0.3138,0.312,0.312,0.3119,0.311,0.311,0.3116,0.3111,0.3202,0.312,0.3121,0.3121,0.3122,0.3122,0.3482,0.3455,0.3429,0.3394,0.3373,0.3349,0.3321,0.3305,0.3273,0.3234,0.323,0.3188,0.316,0.311,0.3091,0.3058,0.3065,0.3052,0.3049,0.3045,0.3043,0.3124,0.3051,0.3051,0.3051,0.3052,0.3052,0,0.3409,0.3393,0.3361,0.3325,0.3297,0.3303,0.3274,0.325,0.3214,0.3188,0.3158,0.3114,0.3077,0.3055,0.3018,0.2996,0.2995,0.2986,0.2987,0.2982,0.3038,0.3049,0.2988,0.2988,0.2988,0.2988,0.2988,0.2988,0.3368,0.3322,0.3314,0.3258,0.3242,0.3202,0.3185,0.3163,0.3142,0.3093,0.3064,0.305,0.3026,0.2988,0.2954,0.2949,0.2934,0.2925,0.292,0.2972,0.2978,0.2985,0.2995,0.2922,0.2922,0.2866,0.2866,0.2865]},{"header":{"parameterUnit":"m.s-1","parameterCategory":1,"la1":30.2991,"la2":30.254,"lo1":-89.0895,"lo2":-89.0444,"dx":0.0017,"dy":0.0017,"nx":28,"ny":28,"refTime":"2022-11-17T15:00:00:Z","depth":0,"parameterNumber":3,"parameterNumberName":"V-component_of_WINDS"},"data":[0,0,0,0,0,0,0,0,0,0,0,0,0,0,0,0,0,0,0,0,0,0,0,0,0,0,0,0,0,0,0,0,0,0,0,0,0,0,0,0,0,0,0,0,0,0,0,0,0,0,0,0,0,0,0,0,0,0,-5.8031,-5.8032,0,-5.8197,-5.8198,-5.82,-5.8121,-5.8117,-5.8113,-5.8109,-5.8275,-5.8283,-5.8291,0,0,0,0,0,0,0,0,0,0,0,0,0,-5.7641,-5.7648,-5.803,-5.8032,-5.8035,-5.8196,-5.8199,-5.8201,-5.8122,-5.8117,-5.8112,-5.8107,-5.8272,-5.8282,-5.8292,0,0,0,0,0,0,0,0,0,0,0,0,0,-5.7809,-5.7651,-5.803,-5.8015,-5.8015,-5.8196,-5.8199,-5.8201,-5.8123,-5.8117,-5.8111,-5.8105,-5.8269,-5.8281,-5.8293,-5.8497,0,0,-5.8331,-5.8337,0,0,0,0,0,0,0,0,-5.7799,-5.7823,-5.8015,-5.8016,-5.8017,-5.8132,-5.8122,-5.83,-5.8125,-5.8082,-5.8109,-5.8102,-5.8232,-5.8247,-5.8292,-5.8505,-5.8512,-5.8333,-5.834,-5.8346,-5.8349,0,0,0,0,0,0,0,-5.7788,-5.7815,-5.8096,-5.8018,-5.8019,-5.7998,-5.8015,-5.8155,-5.819,-5.8085,-5.808,-5.8101,-5.8231,-5.828,-5.8295,-5.8514,-5.8332,-5.8343,-5.8351,-5.8356,-5.8901,-5.8908,0,0,0,0,0,0,-5.7777,-5.7806,-5.8091,-5.8101,-5.789,-5.8011,-5.8029,-5.8101,-5.8189,-5.8196,-5.8106,-5.8097,-5.8262,-5.8281,-5.8301,-5.8545,-5.8345,-5.8357,-5.8364,-5.8894,-5.8903,-5.891,0,0,0,0,0,0,-5.7769,-5.7803,-5.8084,-5.7952,-5.7986,-5.8024,-5.8105,-5.8108,-5.8157,-5.8205,-5.821,-5.815,-5.8258,-5.8283,-5.8449,-5.855,-5.8363,-5.8374,-5.8886,-5.8897,-5.8907,-5.9035,0,0,0,0,0,0,-5.7758,-5.7801,-5.788,-5.7955,-5.7994,-5.8231,-5.8112,-5.8116,-5.8179,-5.8168,-5.8247,-5.8254,-5.8255,-5.8431,-5.8461,-5.8563,-5.8384,-5.8877,-5.8891,-5.8903,-5.9022,-5.9049,-5.9071,0,0,0,0,0,-5.7745,-5.7908,-5.7884,-5.7919,-5.8094,-5.8237,-5.8259,-5.8258,-5.8188,-5.8267,-5.8297,-5.8251,-5.8534,-5.8448,-5.8482,-5.859,-5.8871,-5.8887,-5.8902,-5.9011,-5.9043,-5.9071,0,0,0,0,0,0,-5.7843,-5.7918,-5.7892,-5.8085,-5.8156,-5.8224,-5.8323,-5.8293,-5.8383,-5.8369,-5.8362,-5.8381,-5.8552,-5.8587,-5.8491,-5.8791,-5.8691,-5.8714,-5.8762,-5.8793,-5.8818,-5.8806,-5.8394,0,0,0,0,0,-5.7888,-5.7999,-5.8058,-5.8223,-5.826,-5.8286,-5.8348,-5.8341,-5.8413,-5.8442,-5.8484,-5.8555,-5.8659,-5.8728,-5.8827,-5.9026,-5.9042,-5.9117,-5.9141,-5.9161,-5.9182,-5.9289,-5.9323,-5.8962,-5.8962,-5.8962,0,0,-5.798,-5.8035,-5.8105,-5.8244,-5.8298,-5.8412,-5.8311,-5.8437,-5.8521,-5.846,-5.862,-5.8654,-5.8731,-5.8915,-5.8998,-5.895,-5.9285,-5.9182,-5.9197,-5.9207,-5.9309,-5.9343,-5.9373,-5.8973,-5.8971,-5.8969,0,0,-5.8207,-5.826,-5.8403,-5.846,-5.8543,-5.8559,-5.8593,-5.8666,-5.8687,-5.8847,-5.8804,-5.8903,-5.9083,-5.9141,-5.9193,-5.9442,-5.9403,-5.9474,-5.9603,-5.9708,-5.9737,-5.9762,-5.985,-5.9882,-5.9494,-5.9494,-5.9494,0,-5.8311,-5.8484,-5.848,-5.861,-5.8672,-5.8623,-5.8767,-5.8821,-5.8932,-5.8975,-5.8919,-5.9144,-5.9193,-5.9389,-5.945,-5.9495,-5.9533,-5.9465,-5.9733,-5.9758,-5.9782,-5.9866,-5.9899,-5.9502,-5.9501,-5.9501,-5.95,0,-5.8608,-5.8728,-5.8833,-5.8943,-5.9016,-5.9152,-5.9168,-5.9243,-5.9229,-5.9251,-5.9414,-5.9471,-5.958,-5.9626,-5.9614,-5.9821,-5.9788,-5.9733,-5.9633,-5.9824,-5.9903,-5.9936,-5.9514,-5.9511,-5.9509,-5.9507,0,0,-5.8902,-5.9008,-5.9047,-5.9096,-5.9184,-5.9276,-5.9409,-5.9517,-5.9581,-5.9659,-5.977,-5.9923,-5.9873,-5.9933,-5.9926,-6.0018,-6.0211,-5.9952,-5.9953,-5.9998,-6.0443,-6.0484,-6.0521,-6.0186,-6.0192,-6.0197,-6.0436,0,-5.9136,-5.9371,-5.9372,-5.9588,-5.9698,-5.9654,-5.9769,-5.9835,-5.9859,-5.9955,-5.9979,-6.0089,-6.0014,-6.005,-6.0139,-6.0169,-6.0301,-6.0152,-6.0288,-6.0293,-6.0271,-6.0563,-6.0607,-6.083,-6.0467,-6.0472,-6.0476,0,-5.944,-5.9529,-5.9757,-5.9829,-5.9875,-5.998,-6.0079,-6.0171,-6.0244,-6.0254,-6.0322,-6.0301,-6.0435,-6.0331,-6.0515,-6.0413,-6.0469,-6.0492,-6.05,-6.0513,-6.0396,-6.0583,-6.0901,-6.0934,-6.0525,-6.0521,-6.0517,0,-5.9632,-5.9809,-5.9968,-6.0011,-6.0099,-6.0173,-6.0213,-6.0279,-6.0344,-6.043,-6.0472,-6.0572,-6.0627,-6.0704,-6.071,-6.0634,-6.0895,-6.0792,-6.0907,-6.0907,-6.0964,-6.0961,-6.1295,-6.1,-6.1,-6.0999,-6.0998,0,-5.9893,-6.0034,-6.0055,-6.0154,-6.031,-6.0308,-6.0462,-6.0495,-6.0555,-6.0657,-6.0624,-6.072,-6.0722,-6.082,-6.0826,-6.0977,-6.1002,-6.1013,-6.1013,-6.1017,-6.1015,-6.1053,-6.1038,-6.1008,-6.1006,-6.1004,-6.1003,0,-6.0135,-6.0154,-6.0325,-6.0394,-6.0415,-6.0527,-6.0585,-6.0678,-6.0698,-6.0828,-6.0858,-6.089,-6.1003,-6.1017,-6.1149,-6.1153,-6.1335,-6.1318,-6.1311,-6.1309,-6.1424,-6.1413,-6.1794,-6.1844,-6.1516,-6.1519,-6.1522,0,-6.03,-6.0408,-6.0489,-6.0556,-6.06,-6.0708,-6.0774,-6.0776,-6.0847,-6.0938,-6.1019,-6.113,-6.1219,-6.1402,-6.1436,-6.1537,-6.1522,-6.1649,-6.1537,-6.1537,-6.1524,-6.1518,-6.1528,-6.167,-6.1674,-6.1677,-6.1679,0,-6.0592,-6.0596,-6.0694,-6.0796,-6.0877,-6.0957,-6.1031,-6.1088,-6.1099,-6.1179,-6.1296,-6.1365,-6.1501,-6.1611,-6.171,-6.1748,-6.1717,-6.1714,-6.1746,-6.1752,-6.1743,-6.1749,-6.1371,-6.1706,-6.1703,-6.1701,-6.17,-6.1699,-6.0801,-6.0894,-6.0966,-6.1076,-6.1133,-6.1204,-6.1294,-6.1326,-6.1424,-6.1536,-6.153,-6.1659,-6.1728,-6.1858,-6.1904,-6.2004,-6.1961,-6.2008,-6.202,-6.2031,-6.2043,-6.1727,-6.2021,-6.2021,-6.202,-6.2019,-6.2019,0,-6.1091,-6.1135,-6.1236,-6.1343,-6.1429,-6.1392,-6.1473,-6.1547,-6.1661,-6.1729,-6.1817,-6.1951,-6.2058,-6.21,-6.2204,-6.2275,-6.2263,-6.2302,-6.2297,-6.2307,-6.2075,-6.2037,-6.2311,-6.2311,-6.231,-6.231,-6.231,-6.231,-6.1252,-6.1409,-6.1422,-6.1606,-6.1648,-6.1775,-6.1824,-6.1889,-6.1943,-6.2095,-6.2184,-6.2211,-6.2268,-6.2376,-6.2471,-6.248,-6.252,-6.2567,-6.257,-6.2352,-6.2323,-6.2295,-6.2259,-6.2575,-6.2576,-6.2793,-6.2795,-6.2797]}]]